EW3027 Weather Reports


Display with metric or nautical units.
time (UTC)temp
F
wind
direction
speed
MPH
gust
MPH
rain 1hr
in
rain 24hr
in
rain mn
in
humidity
%
barometer
mb
20260503002216 67 248 1.0 1.0 0.00 0.00 0.00 68 1010.6
20260503001218 66 0.0 1.0 0.00 0.00 0.00 69 1010.9
20260503000218 66 0 2.0 3.0 0.00 0.00 0.00 70 1010.8
20260502235218 65 0 2.0 3.0 0.00 0.00 0.00 70 1010.6
20260502234218 65 338 2.0 4.0 0.00 0.00 0.00 69 1010.9
20260502233238 65 0 2.0 3.0 0.00 0.00 0.00 69 1011.1
20260502232218 65 338 2.0 4.0 0.00 0.00 0.00 68 1011.2
20260502231217 65 293 1.0 2.0 0.00 0.00 0.00 69 1011.5
20260502230217 65 315 1.0 2.0 0.00 0.00 0.00 69 1011.7
20260502225218 65 293 1.0 2.0 0.00 0.00 0.00 69 1011.8
20260502224217 64 315 1.0 2.0 0.00 0.00 0.00 70 1011.9
20260502223238 63 23 4.0 5.0 0.00 0.00 0.00 71 1012.1
20260502222258 63 0 2.0 3.0 0.00 0.00 0.00 72 1012.1
20260502221217 63 45 2.0 3.0 0.00 0.00 0.00 71 1012.3
20260502220218 62 23 3.0 4.0 0.00 0.00 0.00 72 1012.4
20260502215217 62 23 2.0 4.0 0.00 0.00 0.00 73 1012.6
20260502214238 61 45 2.0 3.0 0.00 0.00 0.00 73 1012.6
20260502213237 61 225 1.0 2.0 0.00 0.00 0.00 73 1013.0
20260502212218 61 338 1.0 1.0 0.00 0.00 0.00 73 1013.0
20260502211218 61 45 1.0 2.0 0.00 0.00 0.00 73 1013.2
20260502210217 61 315 1.0 2.0 0.00 0.00 0.00 74 1013.4
20260502205218 61 45 2.0 4.0 0.00 0.00 0.00 75 1013.4
20260502204218 59 270 2.0 3.0 0.00 0.00 0.00 76 1013.4
20260502203237 59 338 3.0 5.0 0.00 0.00 0.00 77 1013.6
20260502202217 58 0 2.0 4.0 0.00 0.00 0.00 77 1013.6
20260502201217 58 45 1.0 2.0 0.00 0.00 0.00 77 1013.7
20260502200238 58 0.0 1.0 0.00 0.00 0.00 79 1013.8
20260502195217 57 0.0 0.0 0.00 0.00 0.00 79 1014.0
20260502194217 57 0.0 0.0 0.00 0.00 0.00 80 1014.1
20260502193217 56 0.0 0.0 0.00 0.00 0.00 81 1014.2
20260502192217 55 0.0 0.0 0.00 0.00 0.00 82 1014.3
20260502191218 55 0.0 0.0 0.00 0.00 0.00 82 1014.3
20260502190217 54 0.0 0.0 0.00 0.00 0.00 84 1014.4
20260502185258 54 0.0 0.0 0.00 0.00 0.00 83 1014.4
20260502184217 54 0.0 0.0 0.00 0.00 0.00 84 1014.5
20260502183218 54 0.0 0.0 0.00 0.00 0.00 82 1014.6
20260502182217 54 0.0 0.0 0.00 0.00 0.00 84 1014.8
20260502181217 54 0.0 0.0 0.00 0.00 0.00 84 1014.7
20260502180238 54 0.0 0.0 0.00 0.00 0.00 84 1014.8
20260502170217 54 0.0 0.0 0.00 0.00 0.00 81 1015.0
20260502164218 54 0.0 0.0 0.00 0.00 0.00 81 1015.1
20260502163237 54 0.0 0.0 0.00 0.00 0.00 82 1015.1
20260502162217 53 0.0 0.0 0.00 0.00 0.00 83 1014.9
20260502161217 53 0.0 0.0 0.00 0.00 0.00 83 1015.0
20260502160217 52 0.0 0.0 0.00 0.00 0.00 83 1014.8
20260502152217 52 0.0 0.0 0.00 0.00 0.00 85 1015.0
20260502151217 51 0.0 0.0 0.00 0.00 0.00 85 1015.1
20260502150217 51 0.0 0.0 0.00 0.00 0.00 85 1015.3
20260502130217 50 0.0 0.0 0.00 0.00 0.00 85 1015.0
20260502123217 50 0.0 0.0 0.00 0.00 0.00 84 1015.1
20260502122217 50 0.0 0.0 0.00 0.00 0.00 84 1015.1
20260502121217 50 0.0 0.0 0.00 0.00 0.00 84 1015.2
20260502120217 50 0.0 0.0 0.00 0.00 0.00 84 1015.2
20260502115237 50 0.0 0.0 0.00 0.00 0.00 84 1015.4
20260502114217 50 0.0 0.0 0.00 0.00 0.00 84 1015.4
20260502113217 50 0.0 0.0 0.00 0.00 0.00 84 1015.3
20260502112237 50 0.0 0.0 0.00 0.00 0.00 85 1015.4
20260502111217 50 0.0 0.0 0.00 0.00 0.00 85 1015.4
20260502110217 50 0.0 0.0 0.00 0.00 0.00 85 1015.3
20260502105237 50 0.0 0.0 0.00 0.00 0.00 85 1015.4
20260502104237 50 0.0 0.0 0.00 0.00 0.00 85 1015.4
20260502103217 50 0.0 0.0 0.00 0.00 0.00 85 1015.3
20260502102217 50 0.0 0.0 0.00 0.00 0.00 85 1015.3
20260502101237 50 0.0 0.0 0.00 0.00 0.00 84 1015.4
20260502100216 50 0.0 0.0 0.00 0.00 0.00 84 1015.3
20260502091217 51 0.0 0.0 0.00 0.00 0.00 82 1015.6
20260502090217 51 0.0 0.0 0.00 0.00 0.00 82 1015.6
20260502071216 54 0.0 0.0 0.00 0.00 0.00 76 1016.2
20260502070217 54 0.0 0.0 0.00 0.00 0.00 75 1016.2
20260502065216 54 0.0 0.0 0.00 0.00 0.00 74 1016.2
20260502064236 55 0.0 0.0 0.00 0.00 0.00 74 1016.2
20260502063256 55 0.0 0.0 0.00 0.00 0.00 74 1016.3
20260502062216 55 0.0 0.0 0.00 0.00 0.00 73 1016.3
20260502061216 55 0.0 0.0 0.00 0.00 0.00 73 1016.4
20260502060218 55 0.0 0.0 0.00 0.00 0.00 72 1016.4
20260502055218 56 0.0 0.0 0.00 0.00 0.00 71 1016.1
20260502054218 56 315 1.0 1.0 0.00 0.00 0.00 71 1016.0
20260502053216 57 0.0 1.0 0.00 0.00 0.00 70 1015.8
20260502052218 57 0.0 1.0 0.00 0.00 0.00 69 1015.8
20260502051216 58 0.0 0.0 0.00 0.00 0.00 68 1015.8
20260502050218 58 0.0 0.0 0.00 0.00 0.00 68 1015.8
20260502045236 58 0.0 1.0 0.00 0.00 0.00 67 1015.8
20260502044218 58 0.0 0.0 0.00 0.00 0.00 66 1015.5
20260502043218 59 0.0 0.0 0.00 0.00 0.00 66 1015.4
20260502042217 59 0.0 0.0 0.00 0.00 0.00 65 1015.3
20260502041218 60 338 1.0 1.0 0.00 0.00 0.00 64 1015.3
20260502040218 60 0 2.0 4.0 0.00 0.00 0.00 63 1015.2
20260502035218 61 0.0 0.0 0.00 0.00 0.00 64 1015.0
20260502034218 62 0.0 1.0 0.00 0.00 0.00 63 1014.8
20260502033218 62 0.0 1.0 0.00 0.00 0.00 62 1014.6
20260502032218 63 0.0 1.0 0.00 0.00 0.00 61 1014.6
20260502031217 64 0.0 0.0 0.00 0.00 0.00 61 1014.5
20260502030218 64 315 1.0 1.0 0.00 0.00 0.00 61 1014.4
20260502025218 65 0.0 1.0 0.00 0.00 0.00 61 1014.3
20260502024217 65 270 1.0 2.0 0.00 0.00 0.00 62 1014.2
20260502023238 66 203 2.0 3.0 0.00 0.00 0.00 63 1014.1
20260502022218 66 0.0 1.0 0.00 0.00 0.00 63 1014.0
20260502021218 67 0.0 0.0 0.00 0.00 0.00 65 1013.9
20260502020218 67 0.0 0.0 0.00 0.00 0.00 67 1013.8
20260502015238 68 0.0 0.0 0.00 0.00 0.00 66 1013.8
20260502014218 68 0.0 0.0 0.00 0.00 0.00 65 1013.7
20260502013238 69 0.0 0.0 0.00 0.00 0.00 63 1013.7
20260502012218 69 0.0 0.0 0.00 0.00 0.00 62 1013.7
20260502011238 69 0.0 0.0 0.00 0.00 0.00 61 1013.5
20260502010217 70 0.0 0.0 0.00 0.00 0.00 59 1013.6
20260502005238 71 0.0 0.0 0.00 0.00 0.00 56 1013.6
20260502004217 71 0.0 0.0 0.00 0.00 0.00 54 1013.5
20260502003218 71 0.0 0.0 0.00 0.00 0.00 56 1013.6